Flag for U.S.A. Weather past 2 weeks in Peoria, Illinois, U.S.A.

Now
40 °F

Sunny.


Feels Like: 31 °F
Forecast: 27 / 40 °F
Wind: 17 mph from South

Location: Greater Peoria Regional Airport

Current Time: Jan 28, 2015 at 2:46:03 PM

Latest Report: Jan 28, 2015 at 1:54 PM


Visibility: 10 mi

Pressure: 30.05 "Hg

Humidity: 68%

Dew point: 30 °F

Location of PeoriaLocation

Historic Weather in Peoria — Graph

°F

Peoria temperature yesterday

Maximum temperature yesterday: 34 °F (at 12:54 AM)
Minimum temperature yesterday: 31 °F (at 3:54 AM)
Average temperature yesterday: 32 °F

Past Weeks' High & Low Weather Summary

 TemperatureHumidityPressure
High49 °F (Jan 24, 2:54 PM)96% (Jan 16, 8:54 AM)30.66 "Hg (Jan 16, 8:54 AM)
Low-1 °F (Jan 14, 1:54 AM)54% (Jan 13, 3:54 PM)29.59 "Hg (Jan 25, 3:54 AM)
Average32 °F77%30.07 "Hg
* Reported Jan 13 12:54 PM — Jan 28 12:54 PM, Peoria, Weather by CustomWeather, © 2014

Note: Actual official high and low records may vary slightly from our data, if they occured in-between our weather recording intervals... More about our weather records

Advertising

Peoria weather history for previous 24 hours

 ConditionsComfort  
Time TempWeatherWind HumidityBarometerVisibility
12:54 PM
Jan 28
38 °FSunny.15 mph68%30.10 "Hg10 mi
11:54 AM37 °FSunny.15 mph67%30.14 "Hg10 mi
10:54 AM34 °FSunny.17 mph67%30.21 "Hg10 mi
9:54 AM32 °FSunny.14 mph66%30.24 "Hg10 mi
8:54 AM29 °FSunny.14 mph66%30.26 "Hg10 mi
7:54 AM26 °FSunny.9 mph71%30.27 "Hg8 mi
6:54 AM26 °FClear.7 mph77%30.27 "Hg7 mi
5:54 AM26 °FIce fog.6 mph84%30.27 "Hg5 mi
4:54 AM27 °FClear.5 mph81%30.27 "Hg6 mi
3:54 AM26 °FClear.5 mph84%30.27 "Hg7 mi
2:54 AM29 °FPassing clouds.5 mph79%30.27 "Hg9 mi
1:54 AM30 °FOvercast.6 mph75%30.28 "Hg10 mi
12:54 AM31 °FOvercast.8 mph76%30.27 "Hg10 mi
11:54 PM
Jan 27
31 °FOvercast.6 mph76%30.28 "Hg10 mi
10:54 PM31 °FOvercast.7 mph76%30.27 "Hg10 mi
9:54 PM31 °FOvercast.5 mph76%30.28 "Hg10 mi
8:54 PM31 °FOvercast.3 mph76%30.26 "Hg10 mi
7:54 PM31 °FOvercast.6 mph76%30.27 "Hg10 mi
6:54 PM31 °FOvercast.No wind76%30.27 "Hg10 mi
5:54 PM31 °FOvercast.No wind76%30.27 "Hg10 mi
4:54 PM32 °FOvercast.3 mph75%30.26 "Hg8 mi
3:54 PM32 °FOvercast.3 mph75%30.24 "Hg9 mi
2:54 PM32 °FOvercast.5 mph73%30.23 "Hg9 mi
Weather by CustomWeather, © 2014

See weather overviewHow to use our weather pages